Location: *
(35.2348°S, 91.3916°E)
Time: 14:29:27
(UTC+00:00)

Lacrosse 5 rocket - Pass Details

Date: 23 October 2019
Orbit: 459 x 639 km, 57.0° (Epoch: 17 November)

Event Time Altitude Azimuth Distance (km) Brightness Sun altitude
Rises 14:31:36 0° 306° (NW) 2,857 5.2 -25.7°
Reaches altitude 10° 14:33:54 10° 300° (WNW) 1,982 4.4 -26.1°
Maximum altitude 14:38:18 47° 226° (SW) 844 2.5 -26.8°
Drops below altitude 10° 14:42:52 10° 151° (SSE) 2,053 4.3 -27.5°
Sets 14:45:18 0° 145° (SE) 2,970 5.1 -27.9°
